^^
Saratoga-Weather Station Historical Data
Daily Summary for August 5, 2020 Units:  English    Metric   Both
Daily Weekly Monthly Yearly Custom
  High: Low: Average:
Temperature: 53.8 °F 49.3 °F 51.4 °F
Dew Point: 52.3 °F 46.9 °F 49.5 °F
Humidity: 95% 88% 93%
Wind Speed: 9mph 0mph 2.1mph
Wind Gust: 12mph - -
Wind- - SSE
Pressure: 29.6 in 29.5 in -
Precipitation: 0.98 in    
Historical Graphs
 
 
Tabular Data for August 5, 2020
Time Temperature Dew Point Pressure Wind Wind Speed Wind Gust Humidity Rainfall Rate (Hourly) solar
00:02 49.3 °F 47.7 °F 29.5 in East 2.9 mph 5 mph 94% 0 in 0 W/m2
00:07 49.3 °F 47.7 °F 29.5 in ENE 2 mph 6 mph 94% 0 in 0 W/m2
00:12 49.5 °F 47.8 °F 29.5 in East 2 mph 2 mph 94% 0 in 0 W/m2
00:17 49.5 °F 47.8 °F 29.5 in ENE 2 mph 4 mph 94% 0 in 0 W/m2
00:22 49.5 °F 47.5 °F 29.5 in NE 0.9 mph 3 mph 93% 0 in 0 W/m2
00:27 49.5 °F 47.5 °F 29.5 in North 2 mph 2 mph 93% 0 in 0 W/m2
00:32 49.6 °F 47.7 °F 29.5 in East 2.9 mph 6 mph 93% 0 in 0 W/m2
00:37 49.6 °F 47.7 °F 29.5 in East 2 mph 5 mph 93% 0 in 0 W/m2
00:42 49.8 °F 47.7 °F 29.5 in NNW 2.9 mph 3 mph 92% 0 in 0 W/m2
00:47 49.8 °F 47.7 °F 29.5 in ENE 2 mph 5 mph 92% 0 in 0 W/m2
00:52 49.8 °F 47.7 °F 29.5 in NNE 0.9 mph 2 mph 92% 0 in 0 W/m2
00:57 49.8 °F 47.3 °F 29.5 in North 2 mph 4 mph 91% 0 in 0 W/m2
01:02 49.8 °F 47.3 °F 29.5 in North 0.9 mph 2 mph 91% 0 in 0 W/m2
01:07 49.8 °F 47.3 °F 29.5 in North 0.9 mph 2 mph 91% 0 in 0 W/m2
01:12 49.8 °F 47.3 °F 29.5 in NNW 0.9 mph 2 mph 91% 0 in 0 W/m2
01:17 49.8 °F 47.3 °F 29.5 in ENE 0.9 mph 2 mph 91% 0 in 0 W/m2
01:23 49.6 °F 47.1 °F 29.5 in ENE 0.9 mph 3 mph 91% 0 in 0 W/m2
01:28 49.6 °F 47.1 °F 29.5 in North 2 mph 3 mph 91% 0 in 0 W/m2
01:33 49.6 °F 47.1 °F 29.5 in East 2 mph 3 mph 91% 0 in 0 W/m2
01:38 49.5 °F 46.9 °F 29.5 in Calm   3 mph 91% 0 in 0 W/m2
01:43 49.5 °F 46.9 °F 29.5 in Calm   2 mph 91% 0 in 0 W/m2
01:48 49.5 °F 47.3 °F 29.5 in Calm   3 mph 92% 0 in 0 W/m2
01:53 49.5 °F 47.3 °F 29.5 in East 2.9 mph 4 mph 92% 0 in 0 W/m2
01:58 49.5 °F 47.3 °F 29.5 in ENE 0.9 mph 4 mph 92% 0 in 0 W/m2
02:03 49.5 °F 47.3 °F 29.5 in ENE 2 mph 3 mph 92% 0 in 0 W/m2
02:08 49.6 °F 47.5 °F 29.5 in Calm   5 mph 92% 0 in 0 W/m2
02:13 49.6 °F 47.5 °F 29.5 in NE 0.9 mph 4 mph 92% 0 in 0 W/m2
02:18 49.8 °F 47.7 °F 29.5 in NE 4 mph 5 mph 92% 0 in 0 W/m2
02:23 50 °F 47.5 °F 29.5 in ENE 2.9 mph 4 mph 91% 0 in 0 W/m2
02:28 50.2 °F 47.7 °F 29.5 in ENE 2.9 mph 3 mph 91% 0 in 0 W/m2
02:33 50.2 °F 47.7 °F 29.5 in ENE 0.9 mph 4 mph 91% 0 in 0 W/m2
02:38 50.2 °F 47.7 °F 29.5 in NE 2.9 mph 6 mph 91% 0 in 0 W/m2
02:43 50.2 °F 47.7 °F 29.5 in ENE 2 mph 4 mph 91% 0 in 0 W/m2
02:48 50.2 °F 47.7 °F 29.5 in Calm   6 mph 91% 0 in 0 W/m2
02:53 50.2 °F 48 °F 29.5 in ENE 4 mph 7 mph 92% 0 in 0 W/m2
02:58 50.4 °F 47.8 °F 29.5 in ENE 6 mph 6 mph 91% 0 in 0 W/m2
03:03 50.4 °F 47.8 °F 29.5 in ENE 2.9 mph 4 mph 91% 0 in 0 W/m2
03:08 50.4 °F 47.8 °F 29.5 in NNE 0.9 mph 3 mph 91% 0 in 0 W/m2
03:13 50.4 °F 47.8 °F 29.5 in NE 0.9 mph 5 mph 91% 0 in 0 W/m2
03:18 50.5 °F 48 °F 29.5 in NNE 0.9 mph 2 mph 91% 0 in 0 W/m2
03:23 50.5 °F 48 °F 29.5 in East 2.9 mph 5 mph 91% 0 in 0 W/m2
03:28 50.5 °F 48 °F 29.5 in Calm   4 mph 91% 0 in 0 W/m2
03:33 50.7 °F 47.8 °F 29.5 in NE 0.9 mph 3 mph 90% 0 in 0 W/m2
03:38 50.7 °F 47.8 °F 29.5 in ENE 2.9 mph 6 mph 90% 0 in 0 W/m2
03:43 50.9 °F 48 °F 29.5 in Calm   2 mph 90% 0 in 0 W/m2
03:48 50.9 °F 48 °F 29.5 in ENE 2 mph 5 mph 90% 0 in 0 W/m2
03:53 51.1 °F 48.2 °F 29.5 in NNE 2 mph 4 mph 90% 0 in 0 W/m2
03:58 51.1 °F 48 °F 29.5 in NE 2 mph 4 mph 89% 0 in 0 W/m2
04:03 51.1 °F 48 °F 29.5 in NNE 4 mph 5 mph 89% 0 in 0 W/m2
04:08 51.1 °F 48 °F 29.5 in NNW 2 mph 3 mph 89% 0 in 0 W/m2
04:13 51.1 °F 48 °F 29.5 in NW 0.9 mph 5 mph 89% 0 in 0 W/m2
04:18 51.1 °F 48 °F 29.5 in ENE 2 mph 2 mph 89% 0 in 0 W/m2
04:23 51.1 °F 48 °F 29.5 in NNE 2.9 mph 4 mph 89% 0 in 0 W/m2
04:29 51.1 °F 48 °F 29.5 in NE 0.9 mph 3 mph 89% 0 in 0 W/m2
04:34 51.1 °F 48 °F 29.5 in ENE 4 mph 5 mph 89% 0 in 0 W/m2
04:39 51.1 °F 47.7 °F 29.5 in ENE 4 mph 4 mph 88% 0 in 0 W/m2
04:44 50.9 °F 47.5 °F 29.5 in North 0.9 mph 5 mph 88% 0 in 0 W/m2
04:49 50.9 °F 47.5 °F 29.5 in NE 2 mph 3 mph 88% 0 in 0 W/m2
04:54 50.7 °F 47.3 °F 29.5 in NE 2 mph 4 mph 88% 0 in 0 W/m2
04:59 50.7 °F 47.3 °F 29.5 in NE 2 mph 3 mph 88% 0 in 0 W/m2
05:04 50.5 °F 47.1 °F 29.5 in NE 2 mph 2 mph 88% 0 in 0 W/m2
05:09 50.5 °F 47.1 °F 29.5 in NNE 2 mph 4 mph 88% 0 in 0 W/m2
05:14 50.5 °F 47.1 °F 29.5 in Calm   4 mph 88% 0 in 0 W/m2
05:19 50.5 °F 47.1 °F 29.5 in NE 2 mph 2 mph 88% 0 in 0 W/m2
05:24 50.7 °F 47.3 °F 29.5 in East 2.9 mph 3 mph 88% 0 in 0 W/m2
05:29 50.5 °F 47.1 °F 29.5 in ENE 2 mph 5 mph 88% 0 in 0 W/m2
05:34 50.5 °F 47.1 °F 29.5 in SW 0.9 mph 5 mph 88% 0 in 0 W/m2
05:39 50.5 °F 47.1 °F 29.5 in ENE 0.9 mph 2 mph 88% 0 in 0 W/m2
05:44 50.5 °F 47.1 °F 29.5 in East 4 mph 4 mph 88% 0 in 0 W/m2
05:49 50.5 °F 47.1 °F 29.5 in SSE 0.9 mph 4 mph 88% 0 in 0 W/m2
05:54 50.5 °F 47.5 °F 29.5 in East 2.9 mph 6 mph 89% 0 in 0 W/m2
05:59 50.5 °F 47.5 °F 29.5 in NE 4 mph 7 mph 89% 0 in 0 W/m2
06:04 50.4 °F 47.3 °F 29.5 in East 0.9 mph 5 mph 89% 0 in 0 W/m2
06:09 50.4 °F 47.3 °F 29.5 in NE 2.9 mph 6 mph 89% 0 in 0 W/m2
06:14 50.4 °F 47.3 °F 29.5 in ENE 4 mph 4 mph 89% 0 in 0 W/m2
06:19 50.4 °F 47.3 °F 29.5 in ESE 0.9 mph 4 mph 89% 0 in 0 W/m2
06:24 50.4 °F 47.3 °F 29.5 in ENE 2 mph 4 mph 89% 0 in 0 W/m2
06:29 50.4 °F 47.3 °F 29.5 in ENE 0.9 mph 4 mph 89% 0 in 0 W/m2
06:34 50.4 °F 47.3 °F 29.5 in NE 2 mph 7 mph 89% 0 in 0 W/m2
06:39 50.4 °F 47.3 °F 29.5 in East 6.9 mph 7 mph 89% 0 in 0 W/m2
06:44 50.5 °F 47.1 °F 29.5 in NE 2.9 mph 6 mph 88% 0 in 0 W/m2
06:49 50.5 °F 47.1 °F 29.5 in NE 2.9 mph 9 mph 88% 0 in 0 W/m2
06:54 50.5 °F 47.1 °F 29.5 in ENE 2 mph 4 mph 88% 0 in 0 W/m2
06:59 50.4 °F 47.3 °F 29.5 in East 2.9 mph 9 mph 89% 0 in 0 W/m2
07:04 50.2 °F 47.1 °F 29.5 in NE 4.9 mph 7 mph 89% 0 in 0 W/m2
07:09 50.2 °F 47.1 °F 29.5 in North 2 mph 7 mph 89% 0 in 0 W/m2
07:14 50.2 °F 47.1 °F 29.5 in ESE 2 mph 5 mph 89% 0 in 0 W/m2
07:19 50.2 °F 47.1 °F 29.5 in NE 4.9 mph 5 mph 89% 0 in 0 W/m2
07:24 50.2 °F 47.1 °F 29.5 in Calm   4 mph 89% 0 in 0 W/m2
07:29 50.2 °F 47.1 °F 29.5 in East 4 mph 6 mph 89% 0.01 in 0 W/m2
07:34 50.2 °F 47.3 °F 29.5 in ENE 2 mph 5 mph 90% 0.01 in 0 W/m2
07:39 50.2 °F 47.3 °F 29.5 in NE 2 mph 3 mph 90% 0.01 in 0 W/m2
07:44 50.2 °F 47.3 °F 29.5 in ENE 4.9 mph 8 mph 90% 0.01 in 0 W/m2
07:49 50.2 °F 47.3 °F 29.5 in ENE 4 mph 6 mph 90% 0.01 in 0 W/m2
07:54 50.2 °F 47.3 °F 29.5 in ENE 2 mph 6 mph 90% 0.01 in 0 W/m2
07:59 50.2 °F 47.3 °F 29.5 in SE 0.9 mph 6 mph 90% 0.01 in 0 W/m2
08:04 50.2 °F 47.3 °F 29.5 in NNE 2 mph 4 mph 90% 0.01 in 5 W/m2
08:09 50 °F 47.1 °F 29.5 in East 2.9 mph 7 mph 90% 0.02 in 7 W/m2
08:14 49.8 °F 46.9 °F 29.5 in NNW 2.9 mph 4 mph 90% 0.02 in 7 W/m2
08:19 49.8 °F 47.3 °F 29.5 in NNE 0.9 mph 3 mph 91% 0.02 in 9 W/m2
08:24 49.8 °F 47.3 °F 29.5 in ENE 0.9 mph 2 mph 91% 0.02 in 9 W/m2
08:29 49.8 °F 47.3 °F 29.5 in East 2 mph 4 mph 91% 0.02 in 16 W/m2
08:35 49.6 °F 47.1 °F 29.5 in NNE 2 mph 4 mph 91% 0.02 in 26 W/m2
08:40 49.6 °F 47.1 °F 29.5 in ENE 2 mph 6 mph 91% 0.02 in 30 W/m2
08:45 49.6 °F 47.1 °F 29.5 in ENE 2.9 mph 6 mph 91% 0.02 in 18 W/m2
08:50 49.6 °F 47.1 °F 29.5 in North 2 mph 4 mph 91% 0.02 in 11 W/m2
08:55 49.8 °F 47.3 °F 29.5 in NW 2.9 mph 8 mph 91% 0.02 in 5 W/m2
09:00 49.8 °F 47.3 °F 29.5 in ENE 2 mph 4 mph 91% 0.02 in 7 W/m2
09:05 49.8 °F 47.3 °F 29.5 in NE 2 mph 4 mph 91% 0.02 in 9 W/m2
09:10 49.8 °F 47.3 °F 29.5 in NE 0.9 mph 3 mph 91% 0.02 in 33 W/m2
09:15 49.8 °F 47.3 °F 29.5 in Calm   3 mph 91% 0.02 in 33 W/m2
09:20 49.8 °F 47.3 °F 29.5 in NE 2 mph 4 mph 91% 0.02 in 25 W/m2
09:25 49.8 °F 47.3 °F 29.5 in ENE 2.9 mph 7 mph 91% 0.01 in 30 W/m2
09:30 49.8 °F 47.3 °F 29.5 in NE 2 mph 3 mph 91% 0.02 in 26 W/m2
09:35 49.8 °F 47.3 °F 29.6 in ENE 2 mph 4 mph 91% 0.02 in 28 W/m2
09:40 49.8 °F 47.7 °F 29.5 in ENE 2 mph 4 mph 92% 0.02 in 37 W/m2
09:45 49.8 °F 47.7 °F 29.5 in ENE 2 mph 6 mph 92% 0.02 in 46 W/m2
09:50 49.8 °F 47.7 °F 29.6 in NW 2.9 mph 3 mph 92% 0.03 in 60 W/m2
09:55 49.8 °F 47.7 °F 29.6 in NE 0.9 mph 6 mph 92% 0.03 in 54 W/m2
10:00 49.8 °F 47.8 °F 29.6 in NW 2 mph 3 mph 93% 0.04 in 37 W/m2
10:05 49.6 °F 47.7 °F 29.6 in NW 2.9 mph 5 mph 93% 0.05 in 46 W/m2
10:10 49.6 °F 47.7 °F 29.6 in North 2 mph 7 mph 93% 0.06 in 39 W/m2
10:15 49.6 °F 48 °F 29.6 in North 2 mph 6 mph 94% 0.06 in 67 W/m2
10:20 49.6 °F 48 °F 29.6 in ENE 2.9 mph 8 mph 94% 0.06 in 60 W/m2
10:25 49.6 °F 48 °F 29.6 in NNW 4 mph 12 mph 94% 0.07 in 37 W/m2
10:30 49.8 °F 47.8 °F 29.6 in NW 2 mph 2 mph 93% 0.07 in 74 W/m2
10:35 49.8 °F 48.2 °F 29.6 in NW 2 mph 12 mph 94% 0.07 in 56 W/m2
10:40 50 °F 48 °F 29.6 in WNW 2.9 mph 8 mph 93% 0.07 in 44 W/m2
10:45 50.2 °F 48.2 °F 29.6 in NNW 4 mph 4 mph 93% 0.07 in 79 W/m2
10:50 50.2 °F 48.2 °F 29.6 in ESE 4 mph 5 mph 93% 0.06 in 116 W/m2
10:55 50.4 °F 48.4 °F 29.6 in North 2 mph 4 mph 93% 0.06 in 135 W/m2
11:00 50.5 °F 48.6 °F 29.6 in West 2 mph 4 mph 93% 0.06 in 100 W/m2
11:05 50.5 °F 48.6 °F 29.6 in North 0.9 mph 3 mph 93% 0.06 in 107 W/m2
11:10 50.5 °F 48.6 °F 29.6 in ENE 0.9 mph 4 mph 93% 0.05 in 114 W/m2
11:15 50.7 °F 48.7 °F 29.6 in NNE 2.9 mph 4 mph 93% 0.05 in 90 W/m2
11:20 50.7 °F 48.7 °F 29.6 in NW 2 mph 6 mph 93% 0.05 in 60 W/m2
11:25 50.7 °F 48.7 °F 29.6 in North 2 mph 4 mph 93% 0.04 in 67 W/m2
11:30 50.7 °F 48.7 °F 29.6 in NW 2.9 mph 3 mph 93% 0.04 in 70 W/m2
11:35 50.7 °F 48.7 °F 29.6 in Calm   3 mph 93% 0.04 in 51 W/m2
11:40 50.7 °F 48.7 °F 29.6 in ENE 2 mph 5 mph 93% 0.04 in 86 W/m2
11:45 50.7 °F 48.7 °F 29.6 in SE 0.9 mph 7 mph 93% 0.05 in 116 W/m2
11:50 50.7 °F 48.7 °F 29.6 in ENE 0.9 mph 3 mph 93% 0.06 in 130 W/m2
11:55 50.7 °F 49.1 °F 29.6 in Calm   7 mph 94% 0.06 in 97 W/m2
12:00 50.9 °F 49.3 °F 29.6 in North 2 mph 5 mph 94% 0.07 in 155 W/m2
12:05 51.1 °F 49.5 °F 29.6 in Calm   5 mph 94% 0.07 in 155 W/m2
12:11 51.1 °F 49.5 °F 29.6 in NNE 2 mph 4 mph 94% 0.07 in 84 W/m2
12:16 51.3 °F 49.6 °F 29.6 in Calm   4 mph 94% 0.08 in 123 W/m2
12:21 51.3 °F 49.6 °F 29.6 in North 0.9 mph 5 mph 94% 0.07 in 100 W/m2
12:26 51.3 °F 49.6 °F 29.6 in Calm   7 mph 94% 0.09 in 183 W/m2
12:31 51.4 °F 49.8 °F 29.6 in NE 0.9 mph 3 mph 94% 0.08 in 113 W/m2
12:36 51.4 °F 49.8 °F 29.6 in NW 6 mph 7 mph 94% 0.09 in 109 W/m2
12:41 51.3 °F 49.3 °F 29.6 in North 0.9 mph 8 mph 93% 0.08 in 142 W/m2
12:46 51.4 °F 49.5 °F 29.6 in NNE 0.9 mph 5 mph 93% 0.08 in 114 W/m2
12:51 51.4 °F 49.5 °F 29.6 in NE 2.9 mph 9 mph 93% 0.07 in 135 W/m2
12:56 51.4 °F 49.5 °F 29.6 in NW 8.9 mph 9 mph 93% 0.07 in 146 W/m2
13:01 51.4 °F 49.5 °F 29.6 in North 2.9 mph 4 mph 93% 0.07 in 90 W/m2
13:06 51.4 °F 49.5 °F 29.6 in NNW 9 mph 9 mph 93% 0.07 in 81 W/m2
13:11 51.3 °F 49.3 °F 29.6 in West 6 mph 10 mph 93% 0.08 in 69 W/m2
13:16 51.3 °F 49.3 °F 29.6 in NW 4.9 mph 9 mph 93% 0.08 in 44 W/m2
13:21 51.3 °F 49.3 °F 29.6 in NNW 4.9 mph 5 mph 93% 0.09 in 37 W/m2
13:26 51.3 °F 49.3 °F 29.6 in NNE 2 mph 7 mph 93% 0.1 in 51 W/m2
13:31 51.3 °F 49.3 °F 29.6 in NW 4 mph 7 mph 93% 0.12 in 70 W/m2
13:36 51.3 °F 49.6 °F 29.6 in Calm   3 mph 94% 0.14 in 93 W/m2
13:41 51.3 °F 49.6 °F 29.6 in North 0.9 mph 4 mph 94% 0.14 in 95 W/m2
13:46 51.3 °F 49.6 °F 29.6 in ESE 0.9 mph 11 mph 94% 0.14 in 116 W/m2
13:51 51.4 °F 49.8 °F 29.6 in NNW 0.9 mph 3 mph 94% 0.14 in 127 W/m2
13:56 51.4 °F 49.8 °F 29.6 in NE 2 mph 5 mph 94% 0.14 in 88 W/m2
14:01 51.6 °F 50 °F 29.6 in NE 0.9 mph 2 mph 94% 0.14 in 95 W/m2
14:06 51.6 °F 50 °F 29.6 in Calm   3 mph 94% 0.13 in 93 W/m2
14:11 51.6 °F 50 °F 29.6 in ESE 2.9 mph 5 mph 94% 0.13 in 70 W/m2
14:16 51.8 °F 50.2 °F 29.6 in NW 0.9 mph 2 mph 94% 0.13 in 47 W/m2
14:21 51.8 °F 50.2 °F 29.6 in NE 2 mph 5 mph 94% 0.13 in 62 W/m2
14:26 51.8 °F 49.8 °F 29.6 in East 4.9 mph 9 mph 93% 0.13 in 53 W/m2
14:31 51.8 °F 50.2 °F 29.6 in NNW 0.9 mph 4 mph 94% 0.12 in 102 W/m2
14:36 52 °F 50.4 °F 29.6 in NNW 0.9 mph 6 mph 94% 0.1 in 54 W/m2
14:41 52 °F 50.4 °F 29.6 in West 2 mph 3 mph 94% 0.1 in 39 W/m2
14:46 52 °F 50.4 °F 29.6 in North 2 mph 2 mph 94% 0.11 in 74 W/m2
14:51 52 °F 50.4 °F 29.6 in NNE 2.9 mph 3 mph 94% 0.12 in 77 W/m2
14:56 52 °F 50.4 °F 29.6 in WNW 0.9 mph 3 mph 94% 0.11 in 100 W/m2
15:01 52.2 °F 50.5 °F 29.6 in ESE 0.9 mph 7 mph 94% 0.11 in 120 W/m2
15:06 52.3 °F 50.7 °F 29.6 in NNE 2 mph 3 mph 94% 0.11 in 118 W/m2
15:11 52.3 °F 50.7 °F 29.6 in WNW 7 mph 7 mph 94% 0.11 in 114 W/m2
15:16 52.5 °F 50.9 °F 29.6 in NNW 0.9 mph 6 mph 94% 0.1 in 123 W/m2
15:21 52.5 °F 50.9 °F 29.6 in NNE 7 mph 7 mph 94% 0.09 in 120 W/m2
15:26 52.5 °F 50.9 °F 29.6 in NNE 2 mph 5 mph 94% 0.07 in 93 W/m2
15:31 52.7 °F 51.1 °F 29.6 in WSW 2.9 mph 5 mph 94% 0.06 in 90 W/m2
15:36 52.7 °F 51.1 °F 29.6 in NW 2 mph 3 mph 94% 0.06 in 70 W/m2
15:42 52.7 °F 51.1 °F 29.6 in NE 0.9 mph 5 mph 94% 0.06 in 62 W/m2
15:47 52.7 °F 51.1 °F 29.6 in Calm   6 mph 94% 0.04 in 83 W/m2
15:52 52.7 °F 51.1 °F 29.6 in NNW 2.9 mph 9 mph 94% 0.03 in 69 W/m2
15:57 52.7 °F 51.1 °F 29.6 in ESE 2 mph 3 mph 94% 0.04 in 83 W/m2
16:02 52.7 °F 51.1 °F 29.6 in Calm   3 mph 94% 0.04 in 72 W/m2
16:07 52.9 °F 51.3 °F 29.6 in ENE 2 mph 5 mph 94% 0.04 in 62 W/m2
16:12 52.9 °F 51.3 °F 29.6 in NNW 2.9 mph 6 mph 94% 0.05 in 77 W/m2
16:17 52.9 °F 51.3 °F 29.6 in NNE 4.9 mph 6 mph 94% 0.06 in 67 W/m2
16:22 52.9 °F 51.3 °F 29.6 in NNE 2.9 mph 3 mph 94% 0.06 in 81 W/m2
16:27 52.9 °F 51.4 °F 29.6 in ENE 2 mph 6 mph 95% 0.06 in 81 W/m2
16:32 52.9 °F 51.4 °F 29.6 in WNW 0.9 mph 6 mph 95% 0.06 in 76 W/m2
16:37 52.9 °F 51.3 °F 29.6 in NE 2 mph 3 mph 94% 0.05 in 81 W/m2
16:42 53.1 °F 51.4 °F 29.6 in WNW 2.9 mph 8 mph 94% 0.05 in 63 W/m2
16:47 53.1 °F 51.4 °F 29.6 in North 2 mph 4 mph 94% 0.05 in 58 W/m2
16:52 53.1 °F 51.4 °F 29.6 in North 2 mph 8 mph 94% 0.06 in 74 W/m2
16:57 53.1 °F 51.4 °F 29.6 in NNW 2.9 mph 3 mph 94% 0.05 in 88 W/m2
17:02 53.1 °F 51.4 °F 29.6 in East 2.9 mph 6 mph 94% 0.04 in 56 W/m2
17:07 53.1 °F 51.4 °F 29.6 in East 6 mph 9 mph 94% 0.04 in 69 W/m2
17:12 53.2 °F 51.6 °F 29.6 in WNW 0.9 mph 3 mph 94% 0.02 in 72 W/m2
17:17 53.2 °F 51.6 °F 29.6 in Calm   3 mph 94% 0.02 in 44 W/m2
17:22 53.2 °F 51.6 °F 29.6 in NNE 0.9 mph 5 mph 94% 0.02 in 47 W/m2
17:27 53.2 °F 51.6 °F 29.6 in NNW 4.9 mph 5 mph 94% 0.02 in 35 W/m2
17:32 53.2 °F 51.6 °F 29.6 in NNW 0.9 mph 4 mph 94% 0.02 in 49 W/m2
17:37 53.2 °F 51.6 °F 29.6 in North 2 mph 3 mph 94% 0.02 in 40 W/m2
17:42 53.2 °F 51.6 °F 29.6 in Calm   6 mph 94% 0.02 in 46 W/m2
17:47 53.2 °F 51.6 °F 29.6 in SW 2.9 mph 7 mph 94% 0.02 in 58 W/m2
17:52 53.4 °F 51.8 °F 29.6 in NNW 2.9 mph 7 mph 94% 0.02 in 37 W/m2
17:57 53.4 °F 51.8 °F 29.6 in Calm   4 mph 94% 0.02 in 44 W/m2
18:02 53.4 °F 51.8 °F 29.6 in NW 2 mph 3 mph 94% 0.02 in 84 W/m2
18:07 53.4 °F 51.8 °F 29.6 in Calm   3 mph 94% 0.02 in 33 W/m2
18:12 53.4 °F 51.8 °F 29.6 in Calm   1 mph 94% 0.02 in 12 W/m2
18:18 53.2 °F 51.6 °F 29.6 in Calm   1 mph 94% 0.02 in 7 W/m2
18:23 53.2 °F 51.6 °F 29.6 in NW 2.9 mph 3 mph 94% 0.02 in 7 W/m2
18:33 53.2 °F 51.8 °F 29.6 in WNW 4 mph 4 mph 95% 0.02 in 5 W/m2
18:38 53.2 °F 51.8 °F 29.6 in NNW 2 mph 3 mph 95% 0.02 in 12 W/m2
18:43 53.2 °F 51.8 °F 29.6 in Calm   3 mph 95% 0.03 in 0 W/m2
18:48 53.2 °F 51.8 °F 29.6 in NNE 0.9 mph 5 mph 95% 0.03 in 0 W/m2
18:53 53.2 °F 51.8 °F 29.6 in East 2 mph 3 mph 95% 0.03 in 0 W/m2
18:58 53.2 °F 51.8 °F 29.6 in Calm   6 mph 95% 0.03 in 0 W/m2
19:03 53.2 °F 51.8 °F 29.6 in NNW 2.9 mph 5 mph 95% 0.04 in 0 W/m2
19:08 53.2 °F 51.8 °F 29.6 in WNW 0.9 mph 7 mph 95% 0.03 in 0 W/m2
19:13 53.2 °F 51.8 °F 29.6 in ENE 2 mph 3 mph 95% 0.03 in 0 W/m2
19:18 53.2 °F 51.8 °F 29.6 in WSW 0.9 mph 7 mph 95% 0.03 in 0 W/m2
19:23 53.2 °F 51.8 °F 29.6 in WNW 0.9 mph 4 mph 95% 0.03 in 0 W/m2
19:28 53.2 °F 51.8 °F 29.6 in WNW 2.9 mph 6 mph 95% 0.03 in 0 W/m2
19:33 53.4 °F 51.8 °F 29.6 in WNW 4.9 mph 6 mph 94% 0.02 in 0 W/m2
19:38 53.4 °F 51.8 °F 29.6 in WSW 0.9 mph 7 mph 94% 0.02 in 0 W/m2
19:43 53.4 °F 51.8 °F 29.6 in NW 0.9 mph 3 mph 94% 0.01 in 0 W/m2
19:48 53.4 °F 51.8 °F 29.6 in Calm   5 mph 94% 0.01 in 0 W/m2
19:53 53.4 °F 51.8 °F 29.6 in ESE 2.9 mph 3 mph 94% 0.01 in 0 W/m2
19:58 53.4 °F 51.8 °F 29.6 in Calm   7 mph 94% 0.01 in 0 W/m2
20:03 53.4 °F 51.8 °F 29.6 in NNE 2 mph 4 mph 94% 0.01 in 0 W/m2
20:08 53.4 °F 51.8 °F 29.6 in WNW 2.9 mph 9 mph 94% 0.01 in 0 W/m2
20:13 53.4 °F 51.8 °F 29.6 in West 6 mph 6 mph 94% 0.02 in 0 W/m2
20:18 53.4 °F 51.8 °F 29.6 in West 4 mph 9 mph 94% 0.02 in 0 W/m2
20:23 53.6 °F 52 °F 29.6 in North 0.9 mph 10 mph 94% 0.02 in 0 W/m2
20:28 53.8 °F 52.2 °F 29.6 in NW 0.9 mph 4 mph 94% 0.02 in 0 W/m2
20:33 53.8 °F 52.2 °F 29.6 in Calm   8 mph 94% 0.02 in 0 W/m2
20:38 53.8 °F 52.2 °F 29.6 in WNW 2 mph 4 mph 94% 0.02 in 0 W/m2
20:43 53.8 °F 52.2 °F 29.6 in NW 0.9 mph 2 mph 94% 0.02 in 0 W/m2
20:48 53.8 °F 52.2 °F 29.6 in SSE 0.9 mph 7 mph 94% 0.03 in 0 W/m2
20:53 53.8 °F 52.2 °F 29.6 in NNW 2.9 mph 7 mph 94% 0.04 in 0 W/m2
20:58 53.8 °F 52.2 °F 29.6 in NNW 2 mph 3 mph 94% 0.04 in 0 W/m2
21:03 53.6 °F 52 °F 29.6 in WSW 0.9 mph 2 mph 94% 0.04 in 0 W/m2
21:08 53.6 °F 52 °F 29.6 in NE 2.9 mph 5 mph 94% 0.05 in 0 W/m2
21:13 53.6 °F 52 °F 29.6 in SW 2 mph 6 mph 94% 0.04 in 0 W/m2
21:18 53.6 °F 52 °F 29.6 in North 0.9 mph 3 mph 94% 0.05 in 0 W/m2
21:23 53.4 °F 51.8 °F 29.6 in North 0.9 mph 4 mph 94% 0.06 in 0 W/m2
21:28 53.4 °F 51.8 °F 29.6 in NNW 2 mph 2 mph 94% 0.06 in 0 W/m2
21:33 53.4 °F 51.8 °F 29.6 in WNW 2 mph 2 mph 94% 0.06 in 0 W/m2
21:38 53.4 °F 51.8 °F 29.6 in East 0.9 mph 3 mph 94% 0.07 in 0 W/m2
21:43 53.4 °F 51.8 °F 29.6 in NE 2.9 mph 5 mph 94% 0.09 in 0 W/m2
21:48 53.4 °F 52 °F 29.6 in NE 2 mph 3 mph 95% 0.09 in 0 W/m2
21:53 53.4 °F 52 °F 29.6 in North 2.9 mph 5 mph 95% 0.09 in 0 W/m2
21:58 53.2 °F 51.8 °F 29.6 in NNE 0.9 mph 3 mph 95% 0.09 in 0 W/m2
22:04 53.2 °F 51.8 °F 29.6 in NNW 2.9 mph 4 mph 95% 0.11 in 0 W/m2
22:09 53.2 °F 51.8 °F 29.6 in NNE 2 mph 5 mph 95% 0.1 in 0 W/m2
22:14 53.2 °F 51.8 °F 29.6 in NNW 2.9 mph 3 mph 95% 0.11 in 0 W/m2
22:19 53.2 °F 51.8 °F 29.6 in ENE 0.9 mph 4 mph 95% 0.11 in 0 W/m2
22:24 53.4 °F 52 °F 29.6 in NNW 2.9 mph 8 mph 95% 0.1 in 0 W/m2
22:29 53.4 °F 52 °F 29.6 in NW 0.9 mph 3 mph 95% 0.1 in 0 W/m2
22:34 53.4 °F 52 °F 29.6 in NNE 0.9 mph 8 mph 95% 0.1 in 0 W/m2
22:39 53.4 °F 52 °F 29.6 in NNW 0.9 mph 2 mph 95% 0.1 in 0 W/m2
22:44 53.4 °F 52 °F 29.6 in NW 0.9 mph 2 mph 95% 0.1 in 0 W/m2
22:49 53.4 °F 52 °F 29.6 in SE 0.9 mph 2 mph 95% 0.11 in 0 W/m2
22:54 53.2 °F 51.8 °F 29.6 in SE 2 mph 3 mph 95% 0.1 in 0 W/m2
22:59 53.2 °F 51.8 °F 29.6 in Calm   2 mph 95% 0.1 in 0 W/m2
23:04 53.1 °F 51.6 °F 29.6 in NE 0.9 mph 3 mph 95% 0.09 in 0 W/m2
23:09 53.1 °F 51.6 °F 29.6 in NE 0.9 mph 4 mph 95% 0.09 in 0 W/m2
23:14 53.1 °F 51.6 °F 29.6 in NNW 0.9 mph 3 mph 95% 0.09 in 0 W/m2
23:19 53.1 °F 51.6 °F 29.6 in NW 4 mph 7 mph 95% 0.09 in 0 W/m2
23:24 53.2 °F 51.8 °F 29.6 in North 2 mph 7 mph 95% 0.1 in 0 W/m2
23:29 53.4 °F 52 °F 29.6 in WSW 4.9 mph 7 mph 95% 0.1 in 0 W/m2
23:34 53.4 °F 52 °F 29.6 in WNW 4 mph 8 mph 95% 0.09 in 0 W/m2
23:39 53.6 °F 52.2 °F 29.6 in West 4 mph 8 mph 95% 0.09 in 0 W/m2
23:44 53.8 °F 52.3 °F 29.6 in WNW 2 mph 8 mph 95% 0.09 in 0 W/m2
23:49 53.8 °F 52.3 °F 29.6 in West 2 mph 8 mph 95% 0.09 in 0 W/m2
23:54 53.8 °F 52.3 °F 29.6 in WNW 4 mph 11 mph 95% 0.09 in 0 W/m2
23:59 53.8 °F 52.3 °F 29.6 in WNW 4.9 mph 11 mph 95% 0.08 in 0 W/m2
Juneau County Weather
Compliments of Weather Underground - 2 mb